Time,TemperatureF,DewpointF,PressureIn,WindDirection,WindDirectionDegrees,WindSpeedMPH,WindSpeedGustMPH,Humidity,HourlyPrecipIn,Conditions,Clouds,dailyrainin,SoftwareType,DateUTC
2013-04-02 00:06:00,32.7,6.8,30.06,North,-999,0.0,0.0,33,0.00,,,-99.99,FreeWX 2.04,2013-04-02 04:06:00,
2013-04-02 00:26:00,32.0,6.8,30.06,North,-999,0.0,0.0,34,0.00,,,-99.99,FreeWX 2.04,2013-04-02 04:26:00,
2013-04-02 00:36:00,31.6,6.4,30.09,North,-999,0.0,0.0,34,0.00,,,-99.99,FreeWX 2.04,2013-04-02 04:36:00,
2013-04-02 00:46:00,31.3,6.3,30.09,North,-999,0.0,0.0,34,0.00,,,-99.99,FreeWX 2.04,2013-04-02 04:46:00,
2013-04-02 00:56:00,30.9,6.4,30.09,North,-999,0.0,0.0,35,0.00,,,-99.99,FreeWX 2.04,2013-04-02 04:56:00,
2013-04-02 01:16:00,30.9,7.7,30.09,North,-999,0.0,0.0,37,0.00,,,-99.99,FreeWX 2.04,2013-04-02 05:16:00,
2013-04-02 01:37:00,30.6,8.6,30.09,North,-999,0.0,0.0,39,0.00,,,-99.99,FreeWX 2.04,2013-04-02 05:37:00,
2013-04-02 01:47:00,30.4,8.4,30.09,North,-999,0.0,0.0,39,0.00,,,-99.99,FreeWX 2.04,2013-04-02 05:47:00,
2013-04-02 01:57:00,30.2,8.8,30.09,North,-999,0.0,0.0,40,0.00,,,-99.99,FreeWX 2.04,2013-04-02 05:57:00,
2013-04-02 02:07:00,29.8,8.4,30.09,North,-999,0.0,0.0,40,0.00,,,-99.99,FreeWX 2.04,2013-04-02 06:07:00,
2013-04-02 02:17:00,29.7,8.4,30.09,North,-999,0.0,0.0,40,0.00,,,-99.99,FreeWX 2.04,2013-04-02 06:17:00,
2013-04-02 02:27:00,29.7,8.4,30.09,North,-999,0.0,0.0,40,0.00,,,-99.99,FreeWX 2.04,2013-04-02 06:27:00,
2013-04-02 02:37:00,29.3,8.1,30.09,North,-999,0.0,0.0,40,0.00,,,-99.99,FreeWX 2.04,2013-04-02 06:37:00,
2013-04-02 02:47:00,29.1,8.4,30.09,North,-999,0.0,0.0,41,0.00,,,-99.99,FreeWX 2.04,2013-04-02 06:47:00,
2013-04-02 02:57:00,28.9,8.2,30.09,North,-999,0.0,0.0,41,0.00,,,-99.99,FreeWX 2.04,2013-04-02 06:57:00,
2013-04-02 03:07:00,28.9,8.2,30.09,North,-999,0.0,0.0,41,0.00,,,-99.99,FreeWX 2.04,2013-04-02 07:07:00,
2013-04-02 03:17:00,28.6,7.9,30.09,North,-999,0.0,0.0,41,0.00,,,-99.99,FreeWX 2.04,2013-04-02 07:17:00,
2013-04-02 03:27:00,28.4,8.2,30.09,North,-999,0.0,0.0,42,0.00,,,-99.99,FreeWX 2.04,2013-04-02 07:27:00,
2013-04-02 03:37:00,28.2,8.1,30.09,North,-999,0.0,0.0,42,0.00,,,-99.99,FreeWX 2.04,2013-04-02 07:37:00,
2013-04-02 03:47:00,28.0,7.9,30.09,North,-999,0.0,0.0,42,0.00,,,-99.99,FreeWX 2.04,2013-04-02 07:47:00,
2013-04-02 03:57:00,28.0,8.4,30.09,North,-999,0.0,0.0,43,0.00,,,-99.99,FreeWX 2.04,2013-04-02 07:57:00,
2013-04-02 04:07:00,27.7,8.1,30.09,North,-999,0.0,0.0,43,0.00,,,-99.99,FreeWX 2.04,2013-04-02 08:07:00,
2013-04-02 04:27:00,27.3,8.8,30.12,North,-999,0.0,0.0,45,0.00,,,-99.99,FreeWX 2.04,2013-04-02 08:27:00,
2013-04-02 04:37:00,27.1,9.7,30.12,North,-999,0.0,4.0,47,0.00,,,-99.99,FreeWX 2.04,2013-04-02 08:37:00,
2013-04-02 04:47:00,27.0,9.9,30.12,North,-999,0.0,0.0,48,0.00,,,-99.99,FreeWX 2.04,2013-04-02 08:47:00,
2013-04-02 04:57:00,27.1,11.5,30.12,North,-999,0.0,3.1,51,0.00,,,-99.99,FreeWX 2.04,2013-04-02 08:57:00,
2013-04-02 05:07:00,27.1,11.5,30.12,North,-999,0.0,0.0,51,0.00,,,-99.99,FreeWX 2.04,2013-04-02 09:07:00,
2013-04-02 05:17:00,27.0,10.8,30.12,North,-999,0.0,0.0,50,0.00,,,-99.99,FreeWX 2.04,2013-04-02 09:17:00,
2013-04-02 05:27:00,26.6,10.0,30.12,North,-999,0.0,0.0,49,0.00,,,-99.99,FreeWX 2.04,2013-04-02 09:27:00,
2013-04-02 05:37:00,26.4,10.4,30.15,North,-999,0.0,3.6,50,0.00,,,-99.99,FreeWX 2.04,2013-04-02 09:37:00,
2013-04-02 05:47:00,26.2,10.6,30.15,North,-999,0.0,3.1,51,0.00,,,-99.99,FreeWX 2.04,2013-04-02 09:47:00,
2013-04-02 05:57:00,26.2,10.6,30.15,North,-999,0.0,3.1,51,0.00,,,-99.99,FreeWX 2.04,2013-04-02 09:57:00,
2013-04-02 06:07:00,26.1,10.4,30.15,North,-999,0.0,0.0,51,0.00,,,-99.99,FreeWX 2.04,2013-04-02 10:07:00,
2013-04-02 06:17:00,26.2,11.1,30.15,North,-999,0.0,0.0,52,0.00,,,-99.99,FreeWX 2.04,2013-04-02 10:17:00,
2013-04-02 06:27:00,26.2,10.6,30.15,North,-999,0.0,0.0,51,0.00,,,-99.99,FreeWX 2.04,2013-04-02 10:27:00,
2013-04-02 06:48:00,25.7,10.0,30.18,North,-999,0.0,0.0,51,0.00,,,-99.99,FreeWX 2.04,2013-04-02 10:48:00,
2013-04-02 06:58:00,25.3,9.9,30.18,North,-999,0.0,0.0,51,0.00,,,-99.99,FreeWX 2.04,2013-04-02 10:58:00,
2013-04-02 07:08:00,25.3,10.2,30.18,North,-999,0.0,4.5,52,0.00,,,-99.99,FreeWX 2.04,2013-04-02 11:08:00,
2013-04-02 07:18:00,25.3,10.2,30.18,North,-999,0.0,4.0,52,0.00,,,-99.99,FreeWX 2.04,2013-04-02 11:18:00,
2013-04-02 07:28:00,25.2,10.0,30.18,North,-999,0.0,3.1,52,0.00,,,-99.99,FreeWX 2.04,2013-04-02 11:28:00,
2013-04-02 07:38:00,25.3,10.6,30.18,North,-999,0.0,2.7,53,0.00,,,-99.99,FreeWX 2.04,2013-04-02 11:38:00,
2013-04-02 07:48:00,25.7,10.9,30.21,North,-999,0.0,0.0,53,0.00,,,-99.99,FreeWX 2.04,2013-04-02 11:48:00,
2013-04-02 07:58:00,26.4,11.7,30.21,North,-999,0.0,0.0,53,0.00,,,-99.99,FreeWX 2.04,2013-04-02 11:58:00,
2013-04-02 08:08:00,26.8,12.0,30.21,North,-999,0.0,0.0,53,0.00,,,-99.99,FreeWX 2.04,2013-04-02 12:08:00,
2013-04-02 08:18:00,27.5,12.6,30.21,North,-999,0.0,0.0,53,0.00,,,-99.99,FreeWX 2.04,2013-04-02 12:18:00,
2013-04-02 08:28:00,28.9,14.4,30.21,North,-999,0.0,0.0,54,0.00,,,-99.99,FreeWX 2.04,2013-04-02 12:28:00,
2013-04-02 08:38:00,30.4,15.8,30.21,North,-999,0.0,0.0,54,0.00,,,-99.99,FreeWX 2.04,2013-04-02 12:38:00,
2013-04-02 08:48:00,31.3,16.2,30.21,North,-999,0.0,0.0,53,0.00,,,-99.99,FreeWX 2.04,2013-04-02 12:48:00,
2013-04-02 08:58:00,32.5,17.8,30.21,North,-999,0.0,0.0,54,0.00,,,-99.99,FreeWX 2.04,2013-04-02 12:58:00,
2013-04-02 09:08:00,33.6,18.3,30.21,North,-999,0.0,4.0,53,0.00,,,-99.99,FreeWX 2.04,2013-04-02 13:08:00,
2013-04-02 09:18:00,34.3,12.6,30.21,SE,139,3.0,4.5,40,0.00,,,-99.99,FreeWX 2.04,2013-04-02 13:18:00,
2013-04-02 09:28:00,34.9,1.8,30.21,South,183,4.0,6.3,24,0.00,,,-99.99,FreeWX 2.04,2013-04-02 13:28:00,
2013-04-02 09:38:00,35.6,2.5,30.24,WSW,244,5.0,7.4,24,0.00,,,-99.99,FreeWX 2.04,2013-04-02 13:38:00,
2013-04-02 09:48:00,36.5,3.2,30.24,SSW,202,4.0,6.7,24,0.00,,,-99.99,FreeWX 2.04,2013-04-02 13:48:00,
2013-04-02 09:58:00,37.0,0.9,30.24,South,184,4.0,6.7,21,0.00,,,-99.99,FreeWX 2.04,2013-04-02 13:58:00,
2013-04-02 10:08:00,38.7,2.1,30.24,North,359,3.0,6.7,21,0.00,,,-99.99,FreeWX 2.04,2013-04-02 14:08:00,
2013-04-02 10:18:00,39.6,2.8,30.24,NNW,334,4.0,6.3,21,0.00,,,-99.99,FreeWX 2.04,2013-04-02 14:18:00,
2013-04-02 10:28:00,39.9,3.2,30.24,North,3,4.0,6.3,21,0.00,,,-99.99,FreeWX 2.04,2013-04-02 14:28:00,
2013-04-02 10:38:00,41.9,3.7,30.24,NNW,348,3.0,5.8,20,0.00,,,-99.99,FreeWX 2.04,2013-04-02 14:38:00,
2013-04-02 10:48:00,43.2,4.8,30.24,NNW,348,3.0,5.4,20,0.00,,,-99.99,FreeWX 2.04,2013-04-02 14:48:00,
2013-04-02 10:58:00,41.7,4.6,30.24,West,265,4.0,6.7,21,0.00,,,-99.99,FreeWX 2.04,2013-04-02 14:58:00,
2013-04-02 11:08:00,41.5,4.5,30.24,SSE,150,4.0,7.4,21,0.00,,,-99.99,FreeWX 2.04,2013-04-02 15:08:00,
2013-04-02 11:18:00,43.7,5.4,30.24,North,357,3.0,6.7,20,0.00,,,-99.99,FreeWX 2.04,2013-04-02 15:18:00,
2013-04-02 11:28:00,45.1,6.4,30.24,NNE,16,5.0,7.8,20,0.00,,,-99.99,FreeWX 2.04,2013-04-02 15:28:00,
2013-04-02 11:38:00,45.5,6.8,30.24,NNW,343,3.0,6.7,20,0.00,,,-99.99,FreeWX 2.04,2013-04-02 15:38:00,
2013-04-02 11:58:00,44.2,5.7,30.24,SSE,164,4.0,7.4,20,0.00,,,-99.99,FreeWX 2.04,2013-04-02 15:58:00,
2013-04-02 12:08:00,44.8,6.3,30.21,SSE,159,5.0,8.7,20,0.00,,,-99.99,FreeWX 2.04,2013-04-02 16:08:00,
2013-04-02 12:18:00,46.4,6.4,30.21,SSE,155,3.0,6.3,19,0.00,,,-99.99,FreeWX 2.04,2013-04-02 16:18:00,
2013-04-02 12:28:00,48.7,8.4,30.21,ENE,60,3.0,8.3,19,0.00,,,-99.99,FreeWX 2.04,2013-04-02 16:28:00,
2013-04-02 12:39:00,49.3,8.8,30.21,NNE,24,4.0,9.6,19,0.00,,,-99.99,FreeWX 2.04,2013-04-02 16:39:00,
2013-04-02 12:49:00,49.5,9.0,30.21,East,99,4.0,8.3,19,0.00,,,-99.99,FreeWX 2.04,2013-04-02 16:49:00,
2013-04-02 12:59:00,49.3,8.8,30.21,SSE,148,4.0,7.8,19,0.00,,,-99.99,FreeWX 2.04,2013-04-02 16:59:00,
2013-04-02 13:09:00,49.3,8.8,30.21,SSE,155,5.0,7.8,19,0.00,,,-99.99,FreeWX 2.04,2013-04-02 17:09:00,
2013-04-02 13:19:00,50.4,9.7,30.18,East,98,4.0,10.5,19,0.00,,,-99.99,FreeWX 2.04,2013-04-02 17:19:00,
2013-04-02 13:29:00,48.9,8.4,30.18,SSE,159,5.0,9.6,19,0.00,,,-99.99,FreeWX 2.04,2013-04-02 17:29:00,
2013-04-02 13:39:00,50.9,10.2,30.18,SE,129,4.0,7.4,19,0.00,,,-99.99,FreeWX 2.04,2013-04-02 17:39:00,
2013-04-02 13:49:00,51.4,12.7,30.18,SE,124,4.0,8.7,21,0.00,,,-99.99,FreeWX 2.04,2013-04-02 17:49:00,
2013-04-02 13:59:00,52.5,13.8,30.18,NNW,344,5.0,9.6,21,0.00,,,-99.99,FreeWX 2.04,2013-04-02 17:59:00,
2013-04-02 14:09:00,53.8,13.6,30.18,NNE,13,5.0,11.0,20,0.00,,,-99.99,FreeWX 2.04,2013-04-02 18:09:00,
2013-04-02 14:19:00,52.9,12.9,30.18,East,99,4.0,9.6,20,0.00,,,-99.99,FreeWX 2.04,2013-04-02 18:19:00,
2013-04-02 14:29:00,55.4,15.1,30.18,North,3,4.0,6.9,20,0.00,,,-99.99,FreeWX 2.04,2013-04-02 18:29:00,
2013-04-02 14:39:00,54.0,13.8,30.15,SE,124,5.0,9.6,20,0.00,,,-99.99,FreeWX 2.04,2013-04-02 18:39:00,
2013-04-02 14:59:00,53.6,13.5,30.15,SE,145,4.0,8.3,20,0.00,,,-99.99,FreeWX 2.04,2013-04-02 18:59:00,
2013-04-02 15:09:00,54.9,14.5,30.15,ESE,115,4.0,8.7,20,0.00,,,-99.99,FreeWX 2.04,2013-04-02 19:09:00,
2013-04-02 15:19:00,55.6,15.1,30.15,NE,49,5.0,7.8,20,0.00,,,-99.99,FreeWX 2.04,2013-04-02 19:19:00,
2013-04-02 15:29:00,53.4,13.5,30.15,SSE,159,5.0,7.8,20,0.00,,,-99.99,FreeWX 2.04,2013-04-02 19:29:00,
2013-04-02 15:39:00,56.8,15.1,30.15,NNE,15,4.0,8.7,19,0.00,,,-99.99,FreeWX 2.04,2013-04-02 19:39:00,
2013-04-02 15:49:00,56.8,15.1,30.15,NNE,18,4.0,9.6,19,0.00,,,-99.99,FreeWX 2.04,2013-04-02 19:49:00,
2013-04-02 15:59:00,55.2,14.9,30.15,NNE,31,5.0,10.5,20,0.00,,,-99.99,FreeWX 2.04,2013-04-02 19:59:00,
2013-04-02 16:09:00,53.6,13.5,30.15,South,169,4.0,7.8,20,0.00,,,-99.99,FreeWX 2.04,2013-04-02 20:09:00,
2013-04-02 16:19:00,54.7,14.4,30.15,East,98,5.0,8.3,20,0.00,,,-99.99,FreeWX 2.04,2013-04-02 20:19:00,
2013-04-02 16:29:00,55.0,14.7,30.15,ESE,121,4.0,7.4,20,0.00,,,-99.99,FreeWX 2.04,2013-04-02 20:29:00,
2013-04-02 16:39:00,55.2,14.9,30.12,North,9,4.0,7.8,20,0.00,,,-99.99,FreeWX 2.04,2013-04-02 20:39:00,
2013-04-02 17:00:00,51.8,13.1,30.12,SSE,156,4.0,6.9,21,0.00,,,-99.99,FreeWX 2.04,2013-04-02 21:00:00,
2013-04-02 17:10:00,52.7,13.8,30.12,NE,49,4.0,11.0,21,0.00,,,-99.99,FreeWX 2.04,2013-04-02 21:10:00,
2013-04-02 17:20:00,52.0,13.3,30.12,ESE,113,3.0,7.8,21,0.00,,,-99.99,FreeWX 2.04,2013-04-02 21:20:00,
2013-04-02 17:30:00,51.6,12.9,30.12,NE,49,4.0,9.2,21,0.00,,,-99.99,FreeWX 2.04,2013-04-02 21:30:00,
2013-04-02 17:40:00,51.4,12.7,30.15,North,9,4.0,7.8,21,0.00,,,-99.99,FreeWX 2.04,2013-04-02 21:40:00,
2013-04-02 17:50:00,51.1,12.6,30.15,NNE,25,3.0,5.4,21,0.00,,,-99.99,FreeWX 2.04,2013-04-02 21:50:00,
2013-04-02 18:00:00,50.2,9.5,30.15,SE,137,3.0,8.3,19,0.00,,,-99.99,FreeWX 2.04,2013-04-02 22:00:00,
2013-04-02 18:10:00,49.3,8.8,30.15,East,85,4.0,9.2,19,0.00,,,-99.99,FreeWX 2.04,2013-04-02 22:10:00,
2013-04-02 18:20:00,48.7,8.4,30.15,SSE,150,3.0,6.3,19,0.00,,,-99.99,FreeWX 2.04,2013-04-02 22:20:00,
2013-04-02 18:30:00,48.9,8.4,30.15,NNE,14,5.0,10.1,19,0.00,,,-99.99,FreeWX 2.04,2013-04-02 22:30:00,
2013-04-02 18:40:00,48.7,8.4,30.15,NNE,29,5.0,11.2,19,0.00,,,-99.99,FreeWX 2.04,2013-04-02 22:40:00,
2013-04-02 18:50:00,47.8,7.5,30.15,NE,44,4.0,8.3,19,0.00,,,-99.99,FreeWX 2.04,2013-04-02 22:50:00,
2013-04-02 19:00:00,47.3,7.2,30.15,NNE,22,4.0,7.8,19,0.00,,,-99.99,FreeWX 2.04,2013-04-02 23:00:00,
2013-04-02 19:20:00,46.2,6.3,30.15,NE,44,3.0,6.9,19,0.00,,,-99.99,FreeWX 2.04,2013-04-02 23:20:00,
2013-04-02 19:30:00,45.5,5.7,30.15,NE,55,1.0,6.7,19,0.00,,,-99.99,FreeWX 2.04,2013-04-02 23:30:00,
2013-04-02 19:40:00,45.0,6.3,30.15,NE,54,3.0,6.7,20,0.00,,,-99.99,FreeWX 2.04,2013-04-02 23:40:00,
2013-04-02 19:50:00,44.2,5.7,30.15,North,-999,0.0,4.0,20,0.00,,,-99.99,FreeWX 2.04,2013-04-02 23:50:00,
2013-04-02 20:11:00,43.2,4.8,30.15,NNE,12,2.0,5.4,20,0.00,,,-99.99,FreeWX 2.04,2013-04-03 00:11:00,
2013-04-02 20:21:00,42.6,4.5,30.15,North,-999,0.0,4.0,20,0.00,,,-99.99,FreeWX 2.04,2013-04-03 00:21:00,
2013-04-02 20:31:00,41.7,4.6,30.15,North,-999,0.0,3.1,21,0.00,,,-99.99,FreeWX 2.04,2013-04-03 00:31:00,
2013-04-02 20:51:00,40.5,3.6,30.15,North,-999,0.0,3.1,21,0.00,,,-99.99,FreeWX 2.04,2013-04-03 00:51:00,
2013-04-02 21:11:00,39.2,2.7,30.18,North,-999,0.0,0.0,21,0.00,,,-99.99,FreeWX 2.04,2013-04-03 01:11:00,
2013-04-02 21:21:00,38.5,1.9,30.18,North,-999,0.0,0.0,21,0.00,,,-99.99,FreeWX 2.04,2013-04-03 01:21:00,
2013-04-02 21:31:00,37.6,1.2,30.18,SE,146,2.0,4.0,21,0.00,,,-99.99,FreeWX 2.04,2013-04-03 01:31:00,
2013-04-02 21:41:00,36.5,1.4,30.18,SE,141,3.0,4.5,22,0.00,,,-99.99,FreeWX 2.04,2013-04-03 01:41:00,
2013-04-02 21:51:00,36.1,2.8,30.18,South,179,2.0,4.5,24,0.00,,,-99.99,FreeWX 2.04,2013-04-03 01:51:00,
2013-04-02 22:02:00,35.8,2.5,30.18,North,-999,0.0,3.1,24,0.00,,,-99.99,FreeWX 2.04,2013-04-03 02:02:00,
2013-04-02 22:12:00,35.2,0.3,30.18,North,-999,0.0,0.0,22,0.00,,,-99.99,FreeWX 2.04,2013-04-03 02:12:00,
2013-04-02 22:22:00,34.9,0.0,30.18,North,-999,0.0,0.0,22,0.00,,,-99.99,FreeWX 2.04,2013-04-03 02:22:00,
2013-04-02 22:32:00,34.2,-0.6,30.21,North,-999,0.0,0.0,22,0.00,,,-99.99,FreeWX 2.04,2013-04-03 02:32:00,
2013-04-02 22:42:00,33.6,1.6,30.21,North,-999,0.0,0.0,25,0.00,,,-99.99,FreeWX 2.04,2013-04-03 02:42:00,
2013-04-02 22:52:00,33.3,1.2,30.21,North,-999,0.0,0.0,25,0.00,,,-99.99,FreeWX 2.04,2013-04-03 02:52:00,
2013-04-02 23:02:00,32.7,0.9,30.21,North,-999,0.0,0.0,25,0.00,,,-99.99,FreeWX 2.04,2013-04-03 03:02:00,
2013-04-02 23:12:00,32.4,3.0,30.21,SE,146,2.0,4.5,28,0.00,,,-99.99,FreeWX 2.04,2013-04-03 03:12:00,
2013-04-02 23:22:00,32.7,4.8,30.21,NNE,12,2.0,4.0,30,0.00,,,-99.99,FreeWX 2.04,2013-04-03 03:22:00,
2013-04-02 23:43:00,32.7,3.2,30.21,North,-999,0.0,0.0,28,0.00,,,-99.99,FreeWX 2.04,2013-04-03 03:43:00,
2013-04-02 23:53:00,32.2,2.8,30.21,North,-999,0.0,0.0,28,0.00,,,-99.99,FreeWX 2.04,2013-04-03 03:53:00,